Regional Weather Roundup
Issued by NWS Kansas City/Pleasant Hill, MO

Home | Current Version | Previous Version | Text Only | Print | Product List | Glossary On
Versions: 1 2 3 4 5 6 7 8 9 10 11 12 13 14 15 16 17 18 19 20 21 22 23 24 25 26 27 28 29 30 31 32 33 34 35 36 37 38 39 40 41 42 43 44 45 46 47 48 49 50
000
ASUS43 KEAX 240110
RWREAX

WEATHER ROUNDUP FOR EASTERN KANSAS AND NORTHWEST MISSOURI
NATIONAL WEATHER SERVICE KANSAS CITY/PLEASANT HILL MO
800 PM CDT THU OCT 23 2014

KSZ040-057-103>105-MOZ028-029-037-043-240200-
...KANSAS CITY METROPOLITAN AREA...

CITY           SKY/WX    TMP DP  RH WIND       PRES   REMARKS
K.C. INTL      PTCLDY    55  55 100 S8        30.07R FOG
K.C. DOWNTOWN  PTCLDY    62  58  86 S6        30.07R
LEES SUMMIT    CLEAR     61  57  87 S6        30.09R
OLATHE - IXD   CLOUDY    60  58  92 S5        30.09R
OLATHE - OJC   MOCLDY    61  60  97 S6        30.08R
LAWRENCE       MOCLDY    59  57  93 S6        30.08R FOG

$$

MOZ001>008-011>017-020>025-030>033-038>040-044>046-053-054-240200-
...NORTHERN AND CENTRAL MISSOURI...

CITY           SKY/WX    TMP DP  RH WIND       PRES   REMARKS
ST. JOSEPH     CLEAR     60  58  92 S6        30.06R
MOSBY          CLEAR     59  59 100 CALM      30.07S FOG
WHITEMAN AFB   CLOUDY    63  58  86 SW7       30.08R
CLINTON        CLOUDY    63  59  88 S5        30.10R
SEDALIA        CLOUDY    63  57  81 SW7       30.10R
WARSAW         NOT AVBL
CHILLICOTHE      N/A     57  55  93 CALM      30.07R
MOBERLY        MOCLDY    61  54  77 S3        30.08
KIRKSVILLE     CLEAR     58  57  97 SW5       30.07R

$$

MOZ041-047>049-056>058-063>065-088>090-097-240200-
...EASTERN AND SOUTHERN MISSOURI...

CITY           SKY/WX    TMP DP  RH WIND       PRES   REMARKS
ST. LOUIS INTL CLOUDY    62  45  53 S6        30.10S
SPIRIT OF STL  MOCLDY    60  48  64 S5        30.09S
COLUMBIA       PTCLDY    57  52  83 S9        30.09R
JEFFERSON CITY CLOUDY    61  52  72 SE3       30.10R
MEXICO         MOCLDY    57  54  88 S6        30.09R
HANNIBAL       CLEAR     55  50  82 S5        30.08S
ROLLA          PTCLDY    54  47  77 S9        30.10R
LEBANON        MOCLDY    57  52  82 CALM      30.13R
OSAGE BEACH    CLOUDY    61  52  72 S6        30.11R
SPRINGFIELD    PTCLDY    57  55  93 CALM      30.12R
BRANSON        CLOUDY    59  52  77 E5        30.13S
NEVADA         CLOUDY    59  57  94 S5        30.12R
JOPLIN         CLOUDY    60  57  89 SW7       30.12R
WEST PLAINS    MOCLDY    54  47  77 CALM      30.14R

$$

IAZ060-094-KSZ022-034>040-054-083-096-NEZ052-066-093-240200-
...KANSAS...SOUTHEAST NEBRASKA AND IOWA...

CITY           SKY/WX    TMP DP  RH WIND       PRES   REMARKS
TOPEKA         PTCLDY    62  61  96 CALM      30.07R
MANHATTAN      PTCLDY    62  58  86 SW5       30.05R
EMPORIA        PTCLDY    60  59  96 S8        30.08R
CHANUTE        CLOUDY    62  58  86 S10       30.09R
WICHITA        MOCLDY    66  59  78 SE7       30.06R
OMAHA          PTCLDY    60  50  69 SE3       30.02R
LINCOLN        PTCLDY    58  51  78 S3        30.03R
FALLS CITY     CLEAR     63  51  65 S6        30.04R
LAMONI         CLEAR     61  55  81 S6        30.05R
DES MOINES     PTCLDY    60  55  83 S8        30.03R

$$




USA.gov is the U.S. government's official web portal to all federal, state and local government web resources and services.